GW7141 Weather Reports


time (UTC)temp
F
wind
direction
speed
knots
gust
knots
rain 1hr
in
rain 24hr
in
rain mn
in
humidity
%
barometer
mb
20260503224517 66 356 14.8 21.7 0.00 0.00 0.00 22 1001.4
20260503223020 66 338 19.1 27.8 0.00 0.00 0.00 23 1000.4
20260503221529 67 339 15.6 24.3 0.00 0.00 0.00 23 1001.4
20260503220029 66 349 10.4 14.8 0.00 0.00 0.00 24 1001.1
20260503214528 66 350 15.6 25.2 0.00 0.00 0.00 23 1001.5
20260503213023 66 342 10.4 20.0 0.00 0.00 0.00 25 1001.6
20260503211506 65 338 13.0 22.6 0.00 0.00 0.00 25 1001.7
20260503210009 65 340 14.8 23.5 0.00 0.00 0.00 25 1001.8
20260503204512 64 359 10.4 21.7 0.00 0.00 0.00 25 1002.3
20260503203020 64 360 13.0 26.1 0.00 0.00 0.00 24 998.0
20260503201522 64 359 8.7 20.0 0.00 0.00 0.00 25 1002.5
20260503200005 64 348 13.0 20.0 0.00 0.00 0.00 24 1002.6
20260503194527 63 344 14.8 18.2 0.00 0.00 0.00 24 1002.6
20260503193026 64 349 9.6 18.2 0.00 0.00 0.00 22 1003.0
20260503191527 63 334 8.7 19.1 0.00 0.00 0.00 20 1003.0
20260503190024 63 359 4.3 17.4 0.00 0.00 0.00 20 1003.1
20260503184515 63 341 8.7 27.8 0.00 0.00 0.00 19 1003.4
20260503183017 63 340 11.3 20.0 0.00 0.00 0.00 19 1003.5
20260503181518 62 344 5.2 23.5 0.00 0.00 0.00 19 1003.7
20260503180026 61 4 13.0 22.6 0.00 0.00 0.00 20 1001.7
20260503174526 61 1 12.2 25.2 0.00 0.00 0.00 18 999.7
20260503173016 62 335 10.4 19.1 0.00 0.00 0.00 18 1004.0
20260503171526 61 336 7.8 21.7 0.00 0.00 0.00 23 1004.0
20260503081531 0 0.0 0.0 0.00 0.00 0.00 1004.3
20260503071532 42 2.6 3.5 0.00 0.00 0.00 68 1005.2
20260503054531 41 179 2.6 4.3 0.00 0.00 0.00 65 1006.2
20260503053026 40 179 2.6 5.2 0.00 0.00 0.00 68 1006.6
20260503051515 40 185 3.5 4.3 0.00 0.00 0.00 70 1006.8
20260503050030 40 185 5.2 6.1 0.00 0.00 0.00 70 1006.7
20260503044525 40 212 2.6 4.3 0.00 0.00 0.00 72 1006.9
20260503043024 40 212 2.6 4.3 0.00 0.00 0.00 74 1006.8
20260503041535 40 212 2.6 4.3 0.00 0.00 0.00 75 1007.1
20260503040028 39 212 0.9 1.7 0.00 0.00 0.00 77 1007.5
20260503034520 39 212 1.7 2.6 0.00 0.00 0.00 76 1007.3
20260503033022 39 207 0.0 1.7 0.00 0.00 0.00 74 1007.5
20260503031525 39 195 0.0 1.7 0.00 0.00 0.00 75 1007.7
20260503030028 39 185 0.0 1.7 0.00 0.00 0.00 75 1007.7
20260503024518 39 181 0.9 4.3 0.00 0.00 0.00 74 1007.8
20260503023021 41 157 4.3 11.3 0.00 0.00 0.00 70 1007.6
20260503021527 40 127 9.6 11.3 0.00 0.00 0.00 68 1002.8
20260503020027 41 146 5.2 7.0 0.00 0.00 0.00 70 1007.5
20260503014527 42 140 4.3 11.3 0.00 0.00 0.00 68 1007.5
20260503013023 41 142 3.5 7.8 0.00 0.00 0.00 68 1007.4
20260503011524 40 132 4.3 7.8 0.00 0.00 0.00 73 1007.3
20260503010027 39 129 7.0 11.3 0.00 0.00 0.00 74 1007.0
20260503004503 40 136 12.2 13.0 0.00 0.00 0.00 71 1006.9
20260503003003 41 110 7.8 14.8 0.00 0.00 0.00 69 1007.1
20260503001506 42 119 14.8 17.4 0.00 0.00 0.00 63 1007.0
20260503000004 62 287 5.2 9.6 0.00 0.00 0.00 35 1007.0
20260502234504 62 287 9.6 13.9 0.00 0.00 0.00 36 1007.1
20260502233003 62 287 11.3 13.0 0.00 0.00 0.00 36 1006.9
20260502231503 62 282 10.4 16.5 0.00 0.00 0.00 34 1007.5
20260502230009 63 287 13.0 20.0 0.00 0.00 0.00 34 1007.6